| time (UTC) | temp F | wind direction | speed knots | gust knots | rain 1hr in | rain 24hr in | rain mn in | humidity % | barometer mb |
| 20260505101504 | 56 | 0.0 | 0.0 | 0.00 | 0.00 | 0.00 | 81 | 1021.7 | |
| 20260505100003 | 56 | 0.0 | 0.0 | 0.00 | 0.00 | 0.00 | 80 | 1021.7 | |
| 20260505094502 | 56 | 0.0 | 0.0 | 0.00 | 0.00 | 0.00 | 80 | 1021.7 | |
| 20260505093002 | 56 | 0.0 | 0.9 | 0.00 | 0.00 | 0.00 | 79 | 1021.7 | |
| 20260505091600 | 56 | 0.0 | 1.7 | 0.00 | 0.00 | 0.00 | 79 | 1021.7 | |
| 20260505090101 | 57 | 0.0 | 0.0 | 0.00 | 0.00 | 0.00 | 79 | 1021.6 | |
| 20260505084557 | 57 | 0.0 | 0.9 | 0.00 | 0.00 | 0.00 | 78 | 1021.4 | |
| 20260505083105 | 57 | 0.0 | 0.9 | 0.00 | 0.00 | 0.00 | 78 | 1021.1 | |
| 20260505081556 | 57 | 0.0 | 0.9 | 0.00 | 0.00 | 0.00 | 78 | 1021.0 | |
| 20260505080054 | 57 | 0.0 | 0.9 | 0.00 | 0.00 | 0.00 | 77 | 1020.9 | |
| 20260505074550 | 57 | 0.0 | 0.9 | 0.00 | 0.00 | 0.00 | 77 | 1020.8 | |
| 20260505073048 | 58 | 0.0 | 0.9 | 0.00 | 0.00 | 0.00 | 75 | 1020.5 | |
| 20260505071546 | 59 | 0.0 | 3.5 | 0.00 | 0.00 | 0.00 | 76 | 1020.4 | |
| 20260505070050 | 59 | 0.9 | 2.6 | 0.00 | 0.00 | 0.00 | 74 | 1020.3 | |
| 20260505064556 | 59 | 0.0 | 1.7 | 0.00 | 0.00 | 0.00 | 73 | 1020.0 | |
| 20260505063049 | 59 | 0.0 | 1.7 | 0.00 | 0.00 | 0.00 | 73 | 1019.9 | |
| 20260505061543 | 59 | 0.0 | 3.5 | 0.00 | 0.00 | 0.00 | 73 | 1019.9 | |
| 20260505060039 | 60 | 0.9 | 3.5 | 0.00 | 0.00 | 0.00 | 73 | 1019.8 | |
| 20260505054538 | 60 | 0.0 | 4.3 | 0.00 | 0.00 | 0.00 | 75 | 1019.7 | |
| 20260505053035 | 60 | 0.9 | 2.6 | 0.00 | 0.00 | 0.00 | 76 | 1019.5 | |
| 20260505051535 | 60 | 0.9 | 4.3 | 0.00 | 0.00 | 0.00 | 77 | 1019.4 | |
| 20260505041535 | 58 | 0.0 | 1.7 | 0.00 | 0.00 | 0.00 | 77 | 1019.1 | |
| 20260505040031 | 58 | 0.9 | 3.5 | 0.00 | 0.00 | 0.00 | 78 | 1019.0 | |
| 20260505034534 | 58 | 1.7 | 7.0 | 0.00 | 0.00 | 0.00 | 77 | 1019.1 | |
| 20260505033032 | 59 | 0.0 | 3.5 | 0.00 | 0.00 | 0.00 | 76 | 1019.1 | |
| 20260505031528 | 59 | 2.6 | 6.1 | 0.00 | 0.00 | 0.00 | 75 | 1019.0 | |
| 20260505030027 | 59 | 0.9 | 2.6 | 0.00 | 0.00 | 0.00 | 74 | 1019.0 | |
| 20260505024538 | 59 | 0.9 | 2.6 | 0.00 | 0.00 | 0.00 | 73 | 1019.2 | |
| 20260505023025 | 60 | 0.9 | 5.2 | 0.00 | 0.00 | 0.00 | 72 | 1019.2 | |
| 20260505021525 | 60 | 0.9 | 5.2 | 0.00 | 0.00 | 0.00 | 70 | 1019.2 | |
| 20260505020024 | 60 | 0.9 | 5.2 | 0.00 | 0.00 | 0.00 | 70 | 1019.4 | |
| 20260505014525 | 60 | 0.9 | 4.3 | 0.00 | 0.00 | 0.00 | 68 | 1019.4 | |
| 20260505013024 | 61 | 0.9 | 4.3 | 0.00 | 0.00 | 0.00 | 69 | 1019.4 | |
| 20260505011520 | 60 | 0.9 | 5.2 | 0.00 | 0.00 | 0.00 | 71 | 1019.5 | |
| 20260505010019 | 60 | 1.7 | 5.2 | 0.00 | 0.00 | 0.00 | 70 | 1019.5 | |
| 20260505004517 | 59 | 1.7 | 4.3 | 0.00 | 0.00 | 0.00 | 71 | 1019.3 | |
| 20260505003015 | 57 | 1.7 | 5.2 | 0.00 | 0.00 | 0.00 | 73 | 1019.3 | |
| 20260505001509 | 56 | 1.7 | 7.8 | 0.00 | 0.00 | 0.00 | 76 | 1019.3 | |
| 20260505000024 | 57 | 2.6 | 7.8 | 0.00 | 0.00 | 0.00 | 76 | 1019.3 | |
| 20260504234507 | 56 | 0.9 | 4.3 | 0.00 | 0.00 | 0.00 | 78 | 1019.0 | |
| 20260504233003 | 56 | 3.5 | 7.0 | 0.00 | 0.00 | 0.00 | 79 | 1018.8 | |
| 20260504231605 | 55 | 4.3 | 8.7 | 0.00 | 0.00 | 0.00 | 81 | 1018.7 | |
| 20260504230100 | 55 | 0.9 | 6.1 | 0.00 | 0.00 | 0.00 | 84 | 1018.5 | |
| 20260504224558 | 54 | 1.7 | 5.2 | 0.00 | 0.00 | 0.00 | 86 | 1018.4 | |
| 20260504223053 | 53 | 1.7 | 7.0 | 0.00 | 0.00 | 0.00 | 88 | 1018.2 | |
| 20260504221558 | 52 | 1.7 | 5.2 | 0.00 | 0.00 | 0.00 | 90 | 1018.1 | |
| 20260504220049 | 52 | 0.9 | 3.5 | 0.00 | 0.00 | 0.00 | 92 | 1017.8 | |
| 20260504214546 | 51 | 2.6 | 6.1 | 0.00 | 0.00 | 0.00 | 92 | 1017.1 | |
| 20260504213043 | 51 | 2.6 | 5.2 | 0.00 | 0.00 | 0.00 | 92 | 1017.1 | |
| 20260504211548 | 51 | 1.7 | 4.3 | 0.00 | 0.00 | 0.00 | 92 | 1016.8 | |
| 20260504210059 | 52 | 1.7 | 4.3 | 0.00 | 0.00 | 0.00 | 92 | 1016.6 | |
| 20260504204543 | 52 | 0.9 | 3.5 | 0.00 | 0.00 | 0.00 | 92 | 1016.4 | |
| 20260504203035 | 52 | 0.9 | 5.2 | 0.00 | 0.00 | 0.00 | 92 | 1016.2 | |
| 20260504201530 | 52 | 1.7 | 4.3 | 0.00 | 0.00 | 0.00 | 92 | 1016.0 | |
| 20260504200029 | 53 | 0.9 | 3.5 | 0.00 | 0.00 | 0.00 | 91 | 1015.6 | |
| 20260504194541 | 53 | 0.0 | 2.6 | 0.00 | 0.00 | 0.00 | 91 | 1015.6 | |
| 20260504193026 | 53 | 0.9 | 5.2 | 0.00 | 0.00 | 0.00 | 91 | 1015.4 | |
| 20260504191526 | 53 | 0.0 | 3.5 | 0.00 | 0.00 | 0.00 | 91 | 1015.2 | |
| 20260504190021 | 53 | 0.9 | 5.2 | 0.00 | 0.00 | 0.00 | 91 | 1014.9 | |
| 20260504184520 | 53 | 0.9 | 5.2 | 0.00 | 0.00 | 0.00 | 91 | 1014.8 | |
| 20260504183016 | 53 | 2.6 | 7.8 | 0.00 | 0.00 | 0.00 | 91 | 1014.5 | |
| 20260504181515 | 53 | 0.9 | 4.3 | 0.00 | 0.00 | 0.00 | 92 | 1014.4 | |
| 20260504180018 | 53 | 1.7 | 6.1 | 0.00 | 0.00 | 0.00 | 91 | 1014.2 | |
| 20260504174510 | 53 | 2.6 | 4.3 | 0.00 | 0.00 | 0.00 | 90 | 1014.2 | |
| 20260504173014 | 54 | 3.5 | 9.6 | 0.00 | 0.00 | 0.00 | 90 | 1014.0 | |
| 20260504171506 | 53 | 2.6 | 9.6 | 0.00 | 0.00 | 0.00 | 90 | 1013.9 |